Date String (YYYY-MM-DD hh:mm:ss) UTC,Instrument flags,absolute air pressure of the measurement (hPa),sample flow rate (lpm),inlet stack bypass flow (lpm),air temperature of the measurement (°C),ambient temperature measured by the external sensor (°C),aerosol sample conditioner tube jacket temperature (°C),OPC LED temperature (°C),internal box temperature (°C),relative humidity of the measurement (%),span deviation,mass concentration of particles derived from Lorenz-Mie calculation of OPC scattering (μg/m³),mass concentration of particles derived from Lorenz-Mie calculation of OPC scattering (μg/m³),mass concentration of particles derived from Lorenz-Mie calculation of OPC scattering (μg/m³)
DateTimeUTC,F1_M11,P_M11,Q1_M11,Q2_M11,T1_M11,T2_M11,T3_M11,T4_M11,T5_M11,U1_M11,ZSPAN_M11,X2_M11,X0_M11,X1_M11
2023-12-17 07:00:00,SystemResetWarning,0830.1,5.00,000.00,024.3,023.3,000.0,032.5,025.6,7.1,0000.0,0000.32,0000.95,0000.26
2023-12-17 07:01:00,SystemResetWarning,0830.1,5.01,000.00,024.3,023.3,000.0,032.5,025.7,7.0,0000.0,0000.32,0000.96,0000.26
2023-12-17 07:02:00,SystemResetWarning,0830.1,5.01,000.00,024.3,023.3,000.0,032.5,025.6,7.0,0000.0,0000.31,0000.94,0000.26
2023-12-17 07:03:00,SystemResetWarning,0830.1,4.98,000.00,024.3,023.3,000.0,032.5,025.7,7.2,0000.0,0000.29,0000.89,0000.25
2023-12-17 07:04:00,SystemResetWarning,0830.1,5.01,000.00,024.3,023.3,000.0,032.5,025.7,7.4,0000.0,0000.29,0000.91,0000.24
2023-12-17 07:05:00,SystemResetWarning,0830.0,5.02,000.00,024.3,023.3,000.0,032.5,025.7,7.2,0000.0,0000.29,0000.87,0000.24
2023-12-17 07:06:00,SystemResetWarning,0830.0,4.99,000.00,024.3,023.3,000.0,032.5,025.7,7.2,0000.0,0000.28,0000.77,0000.24
2023-12-17 07:07:00,SystemResetWarning,0830.0,4.98,000.00,024.3,023.3,000.0,032.5,025.7,7.2,0000.0,0000.27,0000.66,0000.24
2023-12-17 07:08:00,SystemResetWarning,0830.1,5.02,000.00,024.3,023.3,000.0,032.5,025.7,7.2,0000.0,0000.27,0000.36,0000.24
2023-12-17 07:09:00,SystemResetWarning,0830.1,5.00,000.00,024.3,023.3,000.0,032.5,025.7,7.2,0000.0,0000.30,0000.41,0000.25
2023-12-17 07:10:00,SystemResetWarning,0830.0,4.99,000.00,024.3,023.4,000.0,032.6,025.7,7.2,0000.0,0000.30,0000.42,0000.25
2023-12-17 07:11:00,SystemResetWarning,0830.0,5.00,000.00,024.4,023.4,000.0,032.6,025.7,7.1,0000.0,0000.31,0000.44,0000.24
2023-12-17 07:12:00,SystemResetWarning,0830.0,5.02,000.00,024.4,023.4,000.0,032.6,025.7,7.1,0000.0,0000.32,0000.46,0000.24
2023-12-17 07:13:00,SystemResetWarning,0830.1,4.97,000.00,024.4,023.4,000.0,032.6,025.7,7.1,0000.0,0000.33,0000.48,0000.25
2023-12-17 07:14:00,SystemResetWarning,0830.1,5.01,000.00,024.4,023.4,000.0,032.6,025.7,7.2,0000.0,0000.35,0000.53,0000.24
2023-12-17 07:15:00,SystemResetWarning,0830.0,5.01,000.00,024.4,023.4,000.0,032.6,025.7,7.2,0000.0,0000.35,0000.53,0000.24
2023-12-17 07:16:00,SystemResetWarning,0830.0,4.99,000.00,024.4,023.4,000.0,032.6,025.7,7.1,0000.0,0000.36,0000.58,0000.24
2023-12-17 07:17:00,SystemResetWarning,0830.1,4.99,000.00,024.4,023.4,000.0,032.6,025.7,7.2,0000.0,0000.37,0000.60,0000.25
2023-12-17 07:18:00,SystemResetWarning,0830.0,5.01,000.00,024.4,023.4,000.0,032.6,025.7,7.1,0000.0,0000.37,0000.60,0000.24
2023-12-17 07:19:00,SystemResetWarning,0830.0,5.01,000.00,024.4,023.4,000.0,032.6,025.7,7.3,0000.0,0000.36,0000.58,0000.24
2023-12-17 07:20:00,SystemResetWarning,0830.0,5.00,000.00,024.4,023.4,000.0,032.6,025.7,7.1,0000.0,0000.34,0000.53,0000.24
2023-12-17 07:21:00,SystemResetWarning,0830.1,5.00,000.00,024.4,023.4,000.0,032.6,025.7,7.1,0000.0,0000.35,0000.57,0000.24
2023-12-17 07:22:00,SystemResetWarning,0830.1,5.00,000.00,024.4,023.4,000.0,032.6,025.8,7.1,0000.0,0000.35,0000.56,0000.25
2023-12-17 07:23:00,SystemResetWarning,0830.1,5.00,000.00,024.4,023.4,000.0,032.6,025.7,7.0,0000.0,0000.34,0000.55,0000.25
2023-12-17 07:24:00,SystemResetWarning,0830.0,5.00,000.00,024.4,023.4,000.0,032.6,025.7,7.0,0000.0,0000.34,0000.54,0000.24
2023-12-17 07:25:00,SystemResetWarning,0830.0,4.99,000.00,024.4,023.4,000.0,032.6,025.7,6.9,0000.0,0000.32,0000.49,0000.25
2023-12-17 07:26:00,SystemResetWarning,0830.1,5.00,000.00,024.4,023.4,000.0,032.6,025.7,6.9,0000.0,0000.34,0000.57,0000.25
2023-12-17 07:27:00,SystemResetWarning,0830.1,4.99,000.00,024.4,023.4,000.0,032.6,025.7,7.0,0000.0,0000.32,0000.57,0000.25
2023-12-17 07:28:00,SystemResetWarning,0830.1,5.02,000.00,024.4,023.4,000.0,032.6,025.7,7.1,0000.0,0000.32,0000.54,0000.24
2023-12-17 07:29:00,SystemResetWarning,0830.1,5.00,000.00,024.4,023.4,000.0,032.6,025.7,7.1,0000.0,0000.31,0000.54,0000.24
2023-12-17 07:30:00,SystemResetWarning,0830.1,4.98,000.00,024.4,023.4,000.0,032.6,025.7,7.2,0000.0,0000.32,0000.55,0000.25
2023-12-17 07:31:00,SystemResetWarning,0830.1,5.00,000.00,024.4,023.4,000.0,032.6,025.7,7.3,0000.0,0000.31,0000.53,0000.24
2023-12-17 07:32:00,SystemResetWarning,0830.0,5.01,000.00,024.4,023.4,000.0,032.6,025.7,7.2,0000.0,0000.31,0000.51,0000.25
2023-12-17 07:33:00,SystemResetWarning,0830.1,5.01,000.00,024.4,023.4,000.0,032.6,025.7,7.2,0000.0,0000.31,0000.51,0000.25
2023-12-17 07:34:00,SystemResetWarning,0830.0,4.99,000.00,024.4,023.4,000.0,032.6,025.7,7.2,0000.0,0000.30,0000.50,0000.25
2023-12-17 07:35:00,SystemResetWarning,0830.0,4.99,000.00,024.4,023.4,000.0,032.6,025.7,7.1,0000.0,0000.31,0000.50,0000.26
2023-12-17 07:36:00,SystemResetWarning,0830.0,4.99,000.00,024.4,023.4,000.0,032.6,025.7,7.1,0000.0,0000.31,0000.50,0000.27
2023-12-17 07:37:00,SystemResetWarning,0830.0,5.01,000.00,024.4,023.3,000.0,032.6,025.6,7.1,0000.0,0000.32,0000.46,0000.28
2023-12-17 07:38:00,SystemResetWarning,0830.0,5.00,000.00,024.4,023.3,000.0,032.6,025.7,7.2,0000.0,0000.33,0000.42,0000.29
2023-12-17 07:39:00,SystemResetWarning,0830.1,4.98,000.00,024.4,023.3,000.0,032.6,025.7,7.3,0000.0,0000.35,0001.42,0000.30
2023-12-17 07:40:00,SystemResetWarning,0830.1,5.00,000.00,024.4,023.4,000.0,032.6,025.7,7.3,0000.0,0000.36,0001.82,0000.30
2023-12-17 07:41:00,SystemResetWarning,0830.0,5.01,000.00,024.4,023.4,000.0,032.6,025.7,7.3,0000.0,0000.37,0001.89,0000.31
2023-12-17 07:42:00,SystemResetWarning,0830.0,5.00,000.00,024.4,023.4,000.0,032.6,025.7,7.3,0000.0,0000.42,0001.96,0000.33
2023-12-17 07:43:00,SystemResetWarning,0830.0,4.99,000.00,024.4,023.4,000.0,032.6,025.7,7.3,0000.0,0000.43,0001.97,0000.34
2023-12-17 07:44:00,SystemResetWarning,0830.0,5.00,000.00,024.4,023.4,000.0,032.6,025.7,7.3,0000.0,0000.43,0002.01,0000.34
2023-12-17 07:45:00,SystemResetWarning,0830.0,5.01,000.00,024.4,023.4,000.0,032.7,025.7,7.3,0000.0,0000.46,0002.07,0000.36
2023-12-17 07:46:00,SystemResetWarning,0830.0,5.01,000.00,024.4,023.4,000.0,032.7,025.7,7.3,0000.0,0000.46,0002.08,0000.36
2023-12-17 07:47:00,SystemResetWarning,0830.0,4.98,000.00,024.4,023.4,000.0,032.7,025.7,7.2,0000.0,0000.48,0002.59,0000.37
2023-12-17 07:48:00,SystemResetWarning,0830.0,5.00,000.00,024.4,023.4,000.0,032.7,025.7,7.1,0000.0,0000.49,0003.73,0000.38
2023-12-17 07:49:00,SystemResetWarning,0830.0,5.00,000.00,024.4,023.4,000.0,032.7,025.7,7.2,0000.0,0000.51,0003.79,0000.38
2023-12-17 07:50:00,SystemResetWarning,0830.0,5.01,000.00,024.4,023.4,000.0,032.7,025.7,7.1,0000.0,0000.51,0002.78,0000.38
2023-12-17 07:51:00,SystemResetWarning,0830.1,5.01,000.00,024.4,023.4,000.0,032.7,025.7,7.1,0000.0,0000.52,0002.55,0000.39
2023-12-17 07:52:00,SystemResetWarning,0830.1,4.99,000.00,024.4,023.4,000.0,032.7,025.6,7.2,0000.0,0000.51,0002.49,0000.39
2023-12-17 07:53:00,SystemResetWarning,0830.1,4.99,000.00,024.4,023.4,000.0,032.7,025.6,7.2,0000.0,0000.48,0002.45,0000.38
2023-12-17 07:54:00,SystemResetWarning,0830.1,4.99,000.00,024.4,023.3,000.0,032.6,025.6,7.6,0000.0,0000.47,0002.46,0000.37
2023-12-17 07:55:00,SystemResetWarning,0830.1,5.01,000.00,024.4,023.3,000.0,032.6,025.7,7.5,0000.0,0000.48,0002.43,0000.37
2023-12-17 07:56:00,SystemResetWarning,0830.1,5.01,000.00,024.4,023.3,000.0,032.6,025.7,7.3,0000.0,0000.46,0002.38,0000.36
2023-12-17 07:57:00,SystemResetWarning,0830.1,4.99,000.00,024.4,023.3,000.0,032.6,025.7,7.2,0000.0,0000.47,0002.43,0000.35
2023-12-17 07:58:00,SystemResetWarning,0830.1,4.99,000.00,024.4,023.4,000.0,032.6,025.7,7.2,0000.0,0000.45,0001.92,0000.35
2023-12-17 07:59:00,SystemResetWarning,0830.1,5.00,000.00,024.4,023.4,000.0,032.6,025.7,7.2,0000.0,0000.43,0000.75,0000.34
